Powrót do katalogu

FENGYUN 1C DEB

AktywnySSO
NORAD 30313·DEBRIS·🇨🇳 China

Wystrzelony May 10, 1999 z Taiyuan Satellite Launch Center

Loading…

Następne Przeloty (najbliższe 24 godziny)

TLE

ŚwieżeSource: Space-Track

Epoka: Sep 14, 2026, 06:05 UTC

1 30313U 99025AAA 26257.25402716  .00002490  00000-0  10144-2 0  9991
2 30313  98.8698 352.0839 0055535 256.1626 128.4012 14.27545660 10145

Śledź FENGYUN 1C DEB w czasie rzeczywistym z AllMySat

Download on the App Store